Milledgeville, GA

8:25 PM EST on November 20, 2019 (GMT -0500)
Baldwin County

Weather History for KMLJ - September, 2019

Change the Weather History Date:

Saturday, September 7, 2019

  Actual Average (WUND) Record (WUND)
Temperature  
Mean Temperature 81 °F -  
Max Temperature 98 °F - - (-1)
Min Temperature 64 °F - - (-1)
Cooling Degree Days 16    
Growing Degree Days 31 (Base 50)    
Moisture  
Dew Point 65 °F    
Average Humidity 61    
Maximum Humidity 94    
Minimum Humidity 34    
Precipitation  
Precipitation 0.00 in - - ()
Sea Level Pressure  
Sea Level Pressure 29.92 in    
Wind  
Wind Speed 2 mph (NW)    
Max Wind Speed 10 mph    
Max Gust Speed 16 mph    
Visibility 10 miles    
Events      
Averages and records for this station are not official NWS values.
T = Trace of Precipitation, MM = Missing Value Source: NWS Daily Summary

Daily Weather History Graph

Daily Weather History Graph

Search for Another Location

Airport or City:

Astronomy

Sep. 07, 2019 Rise Set
Actual Time 7:11 AM EDT 7:50 PM EDT
Civil Twilight 6:46 AM EDT 8:15 PM EDT
Nautical Twilight 6:16 AM EDT 8:44 PM EDT
Astronomical Twilight 5:46 AM EDT 9:14 PM EDT
Moon 3:50 PM EDT (9/7) 1:15 AM EDT (9/7)
Length of Visible Light 13h 29m
Length of Day
12h 39m
Waxing Gibbous, 65% of the Moon is Illuminated
Sep 7
Waxing Gibbous
Sep 14
Full
Sep 21
Last Quarter
Sep 28
New
Oct 5
First Quarter

Hourly Weather History & Observations

Time (EDT) Temp. Heat Index Dew Point Humidity Pressure Visibility Wind Dir Wind Speed Gust Speed Precip Events Conditions
12:15 AM 71.6 °F - 59.0 °F 64% 29.91 in 10.0 mi Calm Calm - N/A   Clear
12:35 AM 69.8 °F - 59.0 °F 68% 29.91 in 10.0 mi Calm Calm - N/A   Clear
12:55 AM 69.8 °F - 59.0 °F 68% 29.91 in 10.0 mi NW 3.5 mph - N/A   Clear
1:15 AM 69.8 °F - 57.2 °F 64% 29.91 in 10.0 mi Calm Calm - N/A   Clear
1:35 AM 69.8 °F - 57.2 °F 64% 29.91 in 10.0 mi Calm Calm - N/A   Clear
1:55 AM 69.8 °F - 55.4 °F 60% 29.91 in 10.0 mi Calm Calm - N/A   Clear
2:15 AM 69.8 °F - 59.0 °F 68% 29.91 in 10.0 mi Calm Calm - N/A   Clear
2:35 AM 68.0 °F - 59.0 °F 73% 29.91 in 10.0 mi Calm Calm - N/A   Clear
2:55 AM 68.0 °F - 59.0 °F 73% 29.91 in 10.0 mi Calm Calm - N/A   Clear
3:15 AM 68.0 °F - 60.8 °F 78% 29.90 in 10.0 mi Calm Calm - N/A   Clear
3:35 AM 66.2 °F - 60.8 °F 83% 29.90 in 10.0 mi Calm Calm - N/A   Clear
3:55 AM 66.2 °F - 60.8 °F 83% 29.91 in 10.0 mi Calm Calm - N/A   Clear
4:15 AM 66.2 °F - 60.8 °F 83% 29.91 in 10.0 mi Calm Calm - N/A   Clear
4:35 AM 66.2 °F - 60.8 °F 83% 29.91 in 10.0 mi Calm Calm - N/A   Clear
4:55 AM 64.4 °F - 60.8 °F 88% 29.91 in 10.0 mi Calm Calm - N/A   Clear
5:15 AM 64.4 °F - 60.8 °F 88% 29.91 in 10.0 mi Calm Calm - N/A   Clear
5:35 AM 64.4 °F - 60.8 °F 88% 29.92 in 10.0 mi Calm Calm - N/A   Clear
5:55 AM 64.4 °F - 60.8 °F 88% 29.92 in 10.0 mi Calm Calm - N/A   Clear
6:35 AM 64.4 °F - 62.6 °F 94% 29.94 in 10.0 mi WNW 3.5 mph - N/A   Clear
6:55 AM 64.4 °F - 62.6 °F 94% 29.94 in 10.0 mi Calm Calm - N/A   Clear
7:15 AM 64.4 °F - 62.6 °F 94% 29.94 in 10.0 mi Calm Calm - N/A   Clear
7:35 AM 66.2 °F - 62.6 °F 88% 29.94 in 10.0 mi Calm Calm - N/A   Clear
7:55 AM 66.2 °F - 64.4 °F 94% 29.95 in 10.0 mi Calm Calm - N/A   Clear
8:15 AM 69.8 °F - 64.4 °F 83% 29.95 in 10.0 mi Calm Calm - N/A   Clear
8:35 AM 71.6 °F - 64.4 °F 78% 29.96 in 10.0 mi Calm Calm - N/A   Clear
8:55 AM 73.4 °F - 64.4 °F 73% 29.96 in 10.0 mi Calm Calm - N/A   Clear
9:15 AM 77.0 °F - 66.2 °F 69% 29.96 in 10.0 mi Calm Calm - N/A   Clear
9:35 AM 78.8 °F - 64.4 °F 61% 29.97 in 10.0 mi NNW 3.5 mph - N/A   Clear
10:15 AM 80.6 °F 82.3 °F 64.4 °F 58% 29.97 in 10.0 mi NW 5.8 mph - N/A   Clear
10:35 AM 82.4 °F 83.9 °F 64.4 °F 54% 29.98 in 10.0 mi NNW 3.5 mph - N/A   Clear
10:55 AM 86.0 °F 88.2 °F 66.2 °F 51% 29.98 in 10.0 mi Calm Calm - N/A   Clear
11:15 AM 87.8 °F 91.4 °F 68.0 °F 52% 29.97 in 10.0 mi North 5.8 mph - N/A   Clear
11:35 AM 89.6 °F 93.4 °F 68.0 °F 49% 29.96 in 10.0 mi Calm Calm - N/A   Clear
11:55 AM 89.6 °F 93.4 °F 68.0 °F 49% 29.96 in 10.0 mi Calm Calm - N/A   Clear
12:15 PM 91.4 °F 95.4 °F 68.0 °F 46% 29.95 in 10.0 mi Calm Calm - N/A   Clear
12:35 PM 91.4 °F 95.4 °F 68.0 °F 46% 29.94 in 10.0 mi SE 3.5 mph - N/A   Clear
12:55 PM 93.2 °F 97.7 °F 68.0 °F 44% 29.94 in 10.0 mi ESE 4.6 mph - N/A   Clear
1:15 PM 95.0 °F 97.0 °F 64.4 °F 36% 29.93 in 10.0 mi NW 4.6 mph - N/A   Clear
1:35 PM 95.0 °F 97.0 °F 64.4 °F 36% 29.92 in 10.0 mi NNW 6.9 mph - N/A   Clear
1:55 PM 95.0 °F 97.0 °F 64.4 °F 36% 29.92 in 10.0 mi NW 8.1 mph - N/A   Clear
2:15 PM 95.0 °F 98.5 °F 66.2 °F 39% 29.91 in 10.0 mi WNW 8.1 mph - N/A   Scattered Clouds
2:35 PM 95.0 °F 98.5 °F 66.2 °F 39% 29.91 in 10.0 mi WNW 3.5 mph - N/A   Scattered Clouds
2:55 PM 95.0 °F 98.5 °F 66.2 °F 39% 29.90 in 10.0 mi Calm Calm - N/A   Scattered Clouds
3:35 PM 96.8 °F 101.8 °F 68.0 °F 39% 29.88 in 10.0 mi East 6.9 mph - N/A   Mostly Cloudy
3:55 PM 96.8 °F 100.7 °F 66.2 °F 37% 29.88 in 10.0 mi WNW 9.2 mph - N/A   Scattered Clouds
4:15 PM 96.8 °F 99.0 °F 64.4 °F 34% 29.87 in 10.0 mi WNW 6.9 mph - N/A   Scattered Clouds
4:35 PM 98.6 °F 102.8 °F 66.2 °F 35% 29.87 in 10.0 mi NNW 6.9 mph - N/A   Scattered Clouds
4:55 PM 96.8 °F 100.7 °F 66.2 °F 37% 29.87 in 10.0 mi West 8.1 mph - N/A   Scattered Clouds
5:15 PM 96.8 °F 99.0 °F 64.4 °F 34% 29.87 in 10.0 mi NW 10.4 mph - N/A   Clear
5:35 PM 96.8 °F 99.0 °F 64.4 °F 34% 29.86 in 10.0 mi NW 6.9 mph 16.1 mph N/A   Scattered Clouds
5:55 PM 96.8 °F 99.0 °F 64.4 °F 34% 29.86 in 10.0 mi WNW 8.1 mph - N/A   Clear
6:15 PM 96.8 °F 99.0 °F 64.4 °F 34% 29.87 in 10.0 mi WNW 9.2 mph - N/A   Clear
6:35 PM 95.0 °F 97.0 °F 64.4 °F 36% 29.87 in 10.0 mi NNW 8.1 mph - N/A   Clear
6:55 PM 95.0 °F 98.5 °F 66.2 °F 39% 29.87 in 10.0 mi NW 4.6 mph - N/A   Clear
7:15 PM 95.0 °F 98.5 °F 66.2 °F 39% 29.88 in 10.0 mi WNW 5.8 mph - N/A   Clear
7:35 PM 91.4 °F 94.0 °F 66.2 °F 43% 29.88 in 10.0 mi Calm Calm - N/A   Clear
7:55 PM 87.8 °F 91.4 °F 68.0 °F 52% 29.89 in 10.0 mi Calm Calm - N/A   Clear
8:15 PM 87.8 °F 91.4 °F 68.0 °F 52% 29.89 in 10.0 mi Calm Calm - N/A   Clear
8:35 PM 86.0 °F 89.4 °F 68.0 °F 55% 29.89 in 10.0 mi Calm Calm - N/A   Clear
8:55 PM 84.2 °F 88.4 °F 69.8 °F 62% 29.90 in 10.0 mi Calm Calm - N/A   Clear
9:15 PM 82.4 °F 86.3 °F 69.8 °F 66% 29.90 in 10.0 mi Calm Calm - N/A   Scattered Clouds
9:35 PM 82.4 °F 86.3 °F 69.8 °F 66% 29.91 in 10.0 mi Calm Calm - N/A   Scattered Clouds
9:55 PM 80.6 °F 83.9 °F 69.8 °F 70% 29.91 in 10.0 mi Calm Calm - N/A   Scattered Clouds
10:15 PM 80.6 °F 83.9 °F 69.8 °F 70% 29.92 in 10.0 mi Calm Calm - N/A   Scattered Clouds
10:35 PM 80.6 °F 83.9 °F 69.8 °F 70% 29.93 in 10.0 mi Calm Calm - N/A   Scattered Clouds
10:55 PM 80.6 °F 83.9 °F 69.8 °F 70% 29.93 in 10.0 mi Calm Calm - N/A   Scattered Clouds
11:15 PM 78.8 °F - 69.8 °F 74% 29.93 in 10.0 mi Calm Calm - N/A   Clear
11:35 PM 78.8 °F - 69.8 °F 74% 29.94 in 10.0 mi Calm Calm - N/A   Clear
11:55 PM 78.8 °F - 69.8 °F 74% 29.94 in 10.0 mi Calm Calm - N/A   Scattered Clouds